Regional Weather Roundup
Issued by NWS

Home | Current Version | Previous Version | Text Only | Print | Product List | Glossary Off
Versions: 1 2 3 4 5 6 7 8 9 10 11 12 13 14 15 16 17 18 19 20 21 22 23 24 25 26 27 28 29 30 31 32 33 34 35 36 37 38 39 40 41 42 43 44 45 46 47 48 49 50

000
ASUS43 KDTX 221510
RWRMI
MICHIGAN HOURLY REGIONAL WEATHER ROUNDUP
NATIONAL WEATHER SERVICE DETROIT/PONTIAC MI
1100 AM EDT TUE JUL 22 2014

NOTE: "FAIR" INDICATES FEW OR NO CLOUDS BELOW 12,000 FEET WITH NO
SIGNIFICANT WEATHER AND/OR OBSTRUCTION TO VISIBILITY.

MIZ047>049-052>055-059>063-066>070-074>076-081>083-221600-
SOUTHEAST LOWER MICHIGAN

CITY           SKY/WX    TMP DP  RH WIND       PRES   REMARKS
ADRIAN         SUNNY     81  64  56 W7        30.09F
ALMA           SUNNY     79  65  62 S14       30.03F
ANN ARBOR      SUNNY     82  63  52 SW10      30.08F
BAD AXE        SUNNY     80  64  59 SW13      30.06F
CARO           SUNNY     82  66  57 S9        30.05F
DETROIT CITY   SUNNY     84  65  52 S9        30.08F
DETROIT        SUNNY     81  66  60 S7        30.09F
FLINT          SUNNY     82  63  52 SW13      30.06F
GROSSE ILE     SUNNY     79  70  73 S6        30.08F
HILLSDALE      SUNNY     80  65  60 S7        30.09F
HOWELL         SUNNY     81  63  53 SW7       30.07F

CITY           SKY/WX    TMP DP  RH WIND       PRES   REMARKS
JACKSON        SUNNY     81  65  58 S9        30.07F
LAMBERTVILLE   SUNNY     82  63  51 SW5       30.09F
LANSING        SUNNY     80  65  59 S12       30.05F
LAPEER         FAIR      82  62  51 SW8       30.07F
MASON          SUNNY     79  65  62 S5        30.06F
MONROE         SUNNY     82  64  54 SW7       30.07F
MT. CLEMENS    SUNNY     81  68  64 S7        30.07F
PONTIAC        SUNNY     82  62  50 S10       30.07F
PORT HOPE        N/A     80  64  58 VRB5      30.02F
PORT HURON     SUNNY     79  68  69 S7        30.08F
TRI CITIES     SUNNY     81  66  60 SW12      30.04F
TROY           SUNNY     81  64  56 S7        30.09F
SAGINAW HB     SUNNY     81  64  57 S9        30.03F
$$
MIZ043>046-050>051-056>058-064>065-071>073-077>080-221600-
SOUTHWEST LOWER MICHIGAN

CITY           SKY/WX    TMP DP  RH WIND       PRES   REMARKS
BATTLE CREEK   SUNNY     80  65  59 SW13      30.06F
BENTON HARBOR  SUNNY     79  66  64 S14       30.01F
BIG RAPIDS     SUNNY     78  65  63 SW10G24   30.00F
COLDWATER      SUNNY     81  67  61 S10       30.08F
FREMONT        FAIR      80  65  60 SW15G21   30.00S
HOLLAND        SUNNY     82  67  60 S14       30.02F
GRAND RAPIDS   MOSUNNY   81  68  64 SW15      30.02F
IONIA          FAIR      78  64  62 S13       30.03F
KALAMAZOO      SUNNY     81  67  62 SW14      30.05F
LUDINGTON      PTSUNNY   77  67  72 S17       29.96F
MARSHALL       SUNNY     79  65  62 S9G17     30.06F
MOUNT PLEASANT SUNNY     80  67  64 S10G17    30.01F
MUSKEGON       MOSUNNY   79  65  62 S18G25    30.01S
SOUTH HAVEN    SUNNY     79  68  70 SW9       30.01F
$$
MIZ016>042-221600-
NORTHERN LOWER MICHIGAN

CITY           SKY/WX    TMP DP  RH WIND       PRES   REMARKS
ALPENA         SUNNY     81  65  58 S12       29.96F
BEAVER ISLAND  PTSUNNY   78  68  71 S13G25    29.86F
BELLAIRE       SUNNY     82  66  58 S10G18    29.91F
CADILLAC       SUNNY     78  67  70 S13G21    29.99F
CHARLEVOIX     MOSUNNY   79  68  69 S10G16    29.92F
FRANKFORT      PTSUNNY   79  65  61 S13G25    29.91F
GAYLORD        SUNNY     78  64  61 S12       29.97F
GRAYLING       SUNNY     79  66  63 S8        29.99F
HARBOR SPRINGS MOSUNNY   79  67  66 S8        29.91F
HOUGHTON LAKE  SUNNY     78  65  63 S13       30.01F
MANISTEE       PTSUNNY   79  66  65 S13G20    29.95F
OSCODA         SUNNY     81  64  56 SW12      29.99F
PELLSTON       SUNNY     80  67  64 S15G22    29.91F
ROGERS CITY    SUNNY     80  68  66 SW13      29.96F
TRAVERSE CITY  PTSUNNY   78  66  66 VRB7G23   29.91F
$$
MIZ007>008-015-221600-
EASTERN UPPER MICHIGAN

CITY           SKY/WX    TMP DP  RH WIND       PRES   REMARKS
KINROSS        PTSUNNY   79  66  65 S14G21    29.88F
MACKINAC ISLAN MOSUNNY   77  67  71 S10G17    29.89F
NEWBERRY       PTSUNNY   72  65  79 S15G29    29.83F
S. S. MARIE    PTSUNNY   77  66  68 SE12      29.85F
MUNISING         N/A     76  65  68 S14G28    29.73F
$$
MIZ004>006-011>014-085-221600-
CENTRAL UPPER MICHIGAN

CITY           SKY/WX    TMP DP  RH WIND       PRES   REMARKS
MANISTIQUE     CLOUDY    64  61  91 S10G16    29.83F
ESCANABA       PTSUNNY   70  63  78 S14G22    29.79F
MENOMINEE      MOSUNNY   79  70  73 SW13      29.82F
SAWYER-GWINN   CLOUDY    72  68  88 SW16G25   29.77F
$$
MIZ001>003-009>011-084-221600-
WESTERN UPPER MICHIGAN

CITY           SKY/WX    TMP DP  RH WIND       PRES   REMARKS
IRON MOUNTAIN  CLOUDY    77  69  76 S10       29.80F
HOUGHTON       CLOUDY    69  64  84 W31G43    29.71F
COPPER HARBOR    N/A     69  66  90 VRB6      29.67S
IRONWOOD       CLOUDY    73  64  73 W21       29.81R
$$

ABBREVIATIONS USED IN REMARKS
   TC - TEMPERATURE IN CELSIUS
  WCI - WIND CHILL INDEX
   HX - HEAT INDEX
  VSB - VISIBILITY




USA.gov is the U.S. government's official web portal to all federal, state and local government web resources and services.